DECAYED

CZ-6A DEB, 61283 (Decayed)

Orbit data source: Space-Track

CZ-6A DEB, 61283 was space debris in LEO originally from a launch on Tue, 06 Aug 2024 UTC launched from the Taiyaun Space Center, China (TSC). Debris objects in space refer to the collection of defunct objects orbiting the Earth. Examples of debris include non-operational satellites, rocket bodies, and fragments generated from explosions, collisions, or faulty payload assembly.

Not visible in the next 10 days
Identifier
61283, 2024-140SU
Orbit
Decayed
Country
Flag of CNCN / PRC
Related business
Manufacturer
SAST
Mission
Decayed spacecraft
Bus & Motor
Unknown
Mass
Unknown
Launch date (UTC)
2024-08-06 (2 years ago)
Launch vehicle
Unknown
Launch site
Taiyaun Space Center, China (TSC)
Object type
Payload
Rocket body
Debris
Shape & HBR
Unknown shape, 1.1 m
Radar Cross Section
Small (<0.1 m²)

Expand to show TLE details & history
Last TLE update: 1 year ago

TLE from 1 year ago
0 CZ-6A DEB
1 61283U 24140SU  25045.10592983  .07974514  14285+0  30454-1 0  9997
2 61283  89.1835 332.5258 0021903 107.3623 253.0060 15.94397207 25562
Epoch: 2025-02-14T02:32Z
TLE epoch observation values (Epoch: 2025-02-14T02:32:32.337Z)
Latitude
-0.00009°
Longitude
150.0186°
Altitude
297.593 km
Speed
7.727 km/s
True Right ascension
22h 10m 06s
True Declination
0° 00' 00"
Sunlit
Object was in daylight at epoch
Visualization orbit readout
Latitude
Unknown
Longitude
Unknown
Altitude
Unknown
Speed
Unknown
Apparent Right ascension
Unknown
Apparent Declination
Unknown
Sunlit
N/A
Visualization observer readout
Local Sidereal Time
23:44:59
Azimuth
Unknown
Elevation
Unknown
Doppler factor
Unknown
Orbital elements
Apogee altitude
301.297 km
Perigee altitude
272.101 km
Semi-major axis
6,664.836 km
Eccentricity
0.00219
Inclination
89.1835°
RAAN
332.5258°
Arg. of periapsis
107.3623°
True anomaly
252.76616°
Mean anomaly
253.006°
Eccentric anomaly
252.88606°
Mean motion
3.98895 °/min
Orbital period
90.25 mins
BSTAR
0.030454
Loading maneuver chart data...
Computing Atmospheric mass density...
Loading historical data...
Loading historical data...
Loading historical data...
Loading historical data...
Loading historical data...
Loading historical data...
Loading historical data...

Documentation

Showing up to 5 results
|